Location: Croissy-Beaubourg
(48.8283°N, 2.6696°E)
Time: 16:16:29
(UTC+00:00)

Cosmos 1447 Rocket - Pass Details

Date: 16 October 2021
Orbit: 954 x 996 km, 82.9° (Epoch: 29 November)

Event Time Altitude Azimuth Distance (km) Brightness Sun altitude
Rises 18:57:31 0° 353° (N) 3,656 7.7 -20.5°
Reaches altitude 10° 19:00:06 10° 358° (N) 2,701 7.0 -20.9°
Maximum altitude 19:06:08 55° 76° (ENE) 1,144 4.5 -21.9°
Enters shadow 19:07:58 41° 126° (SE) 1,362 4.8 -22.2°
